Weather History for Cut Bank, MT

Change the Weather History Date:

Wednesday, February 13, 2013

  Actual Average Record
Temperature  
Mean Temperature 35 °F 24 °F  
Max Temperature 49 °F 35 °F 58 °F (1934)
Min Temperature 20 °F 13 °F -39 °F (1936)
Degree Days  
Heating Degree Days 30 41  
Month to date heating degree days 389 543  
Since 1 July heating degree days 5132 5461  
Cooling Degree Days 0 0  
Month to date cooling degree days 0 0  
Year to date cooling degree days 0 0  
Moisture  
Dew Point 22 °F    
Average Humidity 62    
Maximum Humidity 92    
Minimum Humidity 31    
Precipitation  
Precipitation T in 0.00 in 0.35 in (1904)
Month to date precipitation T 0.08  
Year to date precipitation 0.42 0.28  
Snow  
Snow 0.00 in - - ()
Snow Depth T in    
Sea Level Pressure  
Sea Level Pressure 30.00 in    
Wind  
Wind Speed 21 mph (NW)    
Max Wind Speed 36 mph    
Max Gust Speed 43 mph    
Visibility 8 miles    
Events Snow    
T = Trace of Precipitation, MM = Missing Value Source: NWS Daily Summary

Daily Weather History Graph

Daily Weather History Graph

Search for Another Location

Airport:

Trip Planner

Search our weather history database for the weather conditions in past years. The results will help you decide how hot, cold, wet, or windy it might be!

Date:

Astronomy

Feb. 13, 2013 Rise Set
Actual Time 7:39 AM MST 5:48 PM MST
Civil Twilight 7:07 AM MST 6:20 PM MST
Nautical Twilight 6:30 AM MST 6:57 PM MST
Astronomical Twilight 5:54 AM MST 7:34 PM MST
Moon 8:48 AM MST (2/13) 10:20 PM MST (2/13)
Length of Visible Light 11h 13m
Length of Day
10h 08m
Waxing Crescent, 14% of the Moon is Illuminated
Feb 13
Waxing Crescent
Feb 17
First Quarter
Feb 25
Full
Mar 4
Last Quarter
Mar 11
New

Hourly Weather History & Observations

Time (MST) Temp. Windchill Dew Point Humidity Pressure Visibility Wind Dir Wind Speed Gust Speed Precip Events Conditions
12:56 AM 37.0 °F 24.9 °F 25.0 °F 62% 29.80 in 10.0 mi West 27.6 mph 34.5 mph N/A   Clear
1:56 AM 37.0 °F 23.9 °F 25.0 °F 62% 29.79 in 10.0 mi West 33.4 mph 41.4 mph N/A   Clear
2:56 AM 35.1 °F 23.5 °F 25.0 °F 67% 29.82 in 10.0 mi West 21.9 mph 31.1 mph N/A   Clear
3:56 AM 33.1 °F 23.9 °F 24.1 °F 70% 29.83 in 10.0 mi West 12.7 mph - N/A   Mostly Cloudy
4:56 AM 37.0 °F 27.4 °F 25.0 °F 62% 29.84 in 10.0 mi WNW 17.3 mph - N/A   Overcast
5:56 AM 37.0 °F 25.4 °F 26.1 °F 65% 29.83 in 10.0 mi West 25.3 mph 38.0 mph N/A   Clear
6:56 AM 35.1 °F 23.3 °F 26.1 °F 70% 29.86 in 10.0 mi West 23.0 mph 29.9 mph N/A   Clear
7:56 AM 34.0 °F 22.7 °F 24.1 °F 67% 29.87 in 10.0 mi West 19.6 mph 28.8 mph N/A   Clear
8:56 AM 37.0 °F 25.6 °F 24.1 °F 59% 29.89 in 10.0 mi West 24.2 mph 27.6 mph N/A   Clear
9:56 AM 42.1 °F 31.7 °F 21.0 °F 43% 29.89 in 10.0 mi West 27.6 mph 35.7 mph N/A   Clear
10:56 AM 43.0 °F 32.4 °F 19.9 °F 40% 29.91 in 10.0 mi West 31.1 mph 40.3 mph N/A   Clear
11:56 AM 45.0 °F 35.4 °F 19.0 °F 36% 29.93 in 10.0 mi West 28.8 mph 38.0 mph N/A   Clear
12:56 PM 45.0 °F 35.6 °F 16.0 °F 31% 29.94 in 10.0 mi West 27.6 mph 35.7 mph N/A   Clear
1:56 PM 44.1 °F 34.6 °F 18.0 °F 35% 29.94 in 10.0 mi West 26.5 mph 35.7 mph N/A   Clear
2:56 PM 42.1 °F 31.5 °F 19.0 °F 40% 29.96 in 10.0 mi West 28.8 mph 35.7 mph N/A   Clear
3:56 PM 41.0 °F 30.0 °F 18.0 °F 40% 29.98 in 10.0 mi West 28.8 mph 33.4 mph N/A   Clear
4:56 PM 37.0 °F 27.4 °F 21.0 °F 52% 30.01 in 10.0 mi West 17.3 mph - N/A   Clear
5:16 PM 32.0 °F 19.8 °F 24.8 °F 75% 29.99 in 10.0 mi NNE 20.7 mph 41.4 mph N/A   Mostly Cloudy
5:56 PM 28.0 °F 15.7 °F 23.0 °F 81% 30.10 in 10.0 mi NNE 17.3 mph - N/A   Partly Cloudy
6:56 PM 27.0 °F 15.6 °F 24.1 °F 89% 30.16 in 4.0 mi North 13.8 mph - 0.00 in Snow Light Snow
7:06 PM 26.6 °F 15.2 °F 24.8 °F 93% 30.07 in 1.8 mi NNE 13.8 mph - 0.00 in Snow Light Snow
7:15 PM 26.6 °F 14.7 °F 24.8 °F 93% 30.07 in 1.0 mi NNE 15.0 mph - 0.00 in Snow Light Snow
7:23 PM 26.6 °F 14.7 °F 24.8 °F 93% 30.07 in 2.0 mi NNE 15.0 mph - 0.00 in Snow Light Snow
7:32 PM 26.6 °F 15.7 °F 24.8 °F 93% 30.08 in 5.0 mi North 12.7 mph - 0.00 in Snow Light Snow
7:42 PM 26.6 °F 16.2 °F 24.8 °F 93% 30.09 in 1.5 mi North 11.5 mph - 0.00 in Snow Light Snow
7:52 PM 26.6 °F 15.2 °F 24.8 °F 93% 30.09 in 3.0 mi NNE 13.8 mph - 0.00 in Snow Light Snow
7:56 PM 27.0 °F 16.7 °F 24.1 °F 89% 30.19 in 8.0 mi NNE 11.5 mph - 0.00 in Snow Light Snow
8:56 PM 24.1 °F 11.0 °F 19.0 °F 81% 30.24 in 10.0 mi North 16.1 mph - 0.00 in   Overcast
9:56 PM 23.0 °F 11.7 °F 18.0 °F 81% 30.25 in 10.0 mi NNW 11.5 mph - N/A   Overcast
10:56 PM 23.0 °F 13.9 °F 18.0 °F 81% 30.28 in 10.0 mi NW 8.1 mph - 0.00 in   Overcast
11:56 PM 21.9 °F 14.5 °F 18.0 °F 85% 30.29 in 10.0 mi WNW 5.8 mph - N/A   Overcast